TimeEST,TemperatureF,Dew PointF,Humidity,Sea Level PressureIn,VisibilityMPH,Wind Direction,Wind SpeedMPH,Gust SpeedMPH,PrecipitationIn,Events,Conditions,WindDirDegrees,DateUTC
12:53 AM,75.9,72.0,87,30.06,10.0,ESE,10.4,-,N/A,,Clear,110,2014-02-04 05:53:00
1:53 AM,75.9,72.0,87,30.05,10.0,ESE,8.1,-,N/A,,Scattered Clouds,110,2014-02-04 06:53:00
2:36 AM,77.0,71.6,83,30.04,10.0,ESE,9.2,-,N/A,,Mostly Cloudy,110,2014-02-04 07:36:00
2:53 AM,77.0,72.0,84,30.04,10.0,ESE,10.4,-,N/A,,Scattered Clouds,110,2014-02-04 07:53:00
3:53 AM,75.9,72.0,87,30.03,10.0,ESE,10.4,-,N/A,,Clear,110,2014-02-04 08:53:00
4:53 AM,75.9,71.1,85,30.04,10.0,ESE,11.5,-,N/A,,Clear,110,2014-02-04 09:53:00
5:53 AM,75.9,72.0,87,30.04,10.0,East,12.7,-,N/A,,Partly Cloudy,100,2014-02-04 10:53:00
5:59 AM,75.2,71.6,89,30.04,10.0,ESE,12.7,-,N/A,,Partly Cloudy,110,2014-02-04 10:59:00
6:53 AM,75.9,71.1,85,30.05,10.0,ESE,10.4,-,N/A,,Partly Cloudy,110,2014-02-04 11:53:00
7:53 AM,77.0,71.1,82,30.06,10.0,ESE,13.8,-,N/A,,Partly Cloudy,110,2014-02-04 12:53:00
8:53 AM,79.0,72.0,79,30.07,10.0,ESE,15.0,-,N/A,,Partly Cloudy,120,2014-02-04 13:53:00
9:53 AM,81.0,72.0,74,30.09,10.0,ESE,15.0,-,N/A,,Partly Cloudy,110,2014-02-04 14:53:00
10:53 AM,82.0,72.0,71,30.09,10.0,ESE,15.0,-,N/A,,Partly Cloudy,110,2014-02-04 15:53:00
11:53 AM,82.0,72.0,71,30.07,10.0,ESE,16.1,-,N/A,,Partly Cloudy,110,2014-02-04 16:53:00
12:53 PM,82.9,73.0,72,30.05,10.0,ESE,15.0,-,N/A,,Scattered Clouds,110,2014-02-04 17:53:00
1:53 PM,82.9,72.0,69,30.02,10.0,ESE,15.0,-,N/A,,Scattered Clouds,110,2014-02-04 18:53:00
2:53 PM,82.9,73.0,72,30.01,10.0,ESE,13.8,23.0,N/A,,Scattered Clouds,110,2014-02-04 19:53:00
3:53 PM,82.0,73.0,74,30.01,10.0,East,12.7,-,N/A,,Scattered Clouds,100,2014-02-04 20:53:00
4:53 PM,80.1,73.0,79,30.01,10.0,East,15.0,-,N/A,,Scattered Clouds,100,2014-02-04 21:53:00
5:53 PM,79.0,73.0,82,30.01,10.0,ESE,15.0,-,N/A,,Scattered Clouds,110,2014-02-04 22:53:00
6:53 PM,78.1,72.0,81,30.01,10.0,ESE,17.3,24.2,N/A,,Scattered Clouds,110,2014-02-04 23:53:00
7:53 PM,78.1,73.0,84,30.03,10.0,ESE,13.8,-,N/A,,Scattered Clouds,110,2014-02-05 00:53:00
8:53 PM,78.1,73.0,84,30.05,10.0,ESE,12.7,-,N/A,,Scattered Clouds,120,2014-02-05 01:53:00
9:53 PM,78.1,73.0,84,30.05,10.0,ESE,15.0,-,N/A,,Partly Cloudy,120,2014-02-05 02:53:00
10:53 PM,78.1,73.0,84,30.06,10.0,ESE,11.5,-,N/A,,Clear,120,2014-02-05 03:53:00
11:32 PM,78.8,73.4,83,30.07,10.0,SE,9.2,-,N/A,,Mostly Cloudy,130,2014-02-05 04:32:00
11:53 PM,78.1,73.0,84,30.06,10.0,SE,10.4,-,N/A,,Overcast,130,2014-02-05 04:53:00